Weather Service Report


427 
ASCA44 KEWX 240020
RWRMX 

LATIN AMERICA AND CARIBBEAN REGIONAL WEATHER ROUNDUP
NATIONAL WEATHER SERVICE AUSTIN/SAN ANTONIO TX
700 PM CDT TUE SEP 23 2014

NOTE: "FAIR" INDICATED FEW OR NO CLOUDS BELOW 12,000 FEET WITH NO
SIGNIFICANT WEATHER AND/OR OBSTRUCTIONS TO VISIBILITY.

BAJA CALIFORNIA
  
CITY           SKY/WX    TMP DP  RH WIND       PRES   REMARKS
LORETO         MOSUNNY   90  75  62 CALM      29.75F HX 100           
LA PAZ         MOSUNNY   86  70  58 NW9       29.79  HX  90           
MEXICALI       SUNNY    102  50  17 S6        29.77  HX  99           
S.J. DEL CABO  MOSUNNY   81  75  83 S7        29.80R                  
TIJUANA        SUNNY     81  59  47 W10       29.91S                  

NORTHWESTERN MEXICO
  
CITY           SKY/WX    TMP DP  RH WIND       PRES   REMARKS
CULIACAN       MOSUNNY   95  79  59 NW8       29.77  THUNDER HX 112   
DURANGO        PTSUNNY   66  63  88 NW7       30.16S                  
GUAYMAS        MOSUNNY   91  79  66 SW22      29.70  HX 107           
HERMOSILLO     MOSUNNY   97  70  41 W7        29.79  HX 103           
CD. JUAREZ     MOSUNNY   82  63  51 SE10      30.05                   
LOS MOCHIS     MOSUNNY   88  73  62 W16       29.77S HX  96           
OBREGON        PTSUNNY   93  72  49 NW7       29.74  HX 100           

NORTHEASTERN MEXICO
  
CITY           SKY/WX    TMP DP  RH WIND       PRES   REMARKS
CHIHUAHUA      PTSUNNY   73  54  49 CALM      30.14                   
MATAMOROS      MOCLDY    81  77  89 N14       29.99                   
MONCLOVA         N/A    N/A N/A N/A MISG        N/A                   
MONTERREY      MOCLDY    82  61  47 E6        30.00F                  
NUEVO LAREDO   MOCLDY    91  68  46 SE9       29.98  HX  95           
PIEDRAS NEGRAS MOCLDY    88  70  55 SE7       30.02  HX  92           
REYNOSA        PTCLDY    79  70  73 NE12      29.98                   
SALTILLO       CLEAR     70  61  73 N17       30.17F                  
TORREON        MOSUNNY   86  50  28 NE5       30.02F                  
CD. VICTORIA   MOCLDY    79  70  73 N5        29.98                   

WESTERN MEXICO
  
CITY           SKY/WX    TMP DP  RH WIND       PRES   REMARKS
AGUASCALIENTES PTCLDY    77  50  38 NE12      30.14                   
COLIMA         TSTM      73  68  83 SW12      29.92R                  
DEL BAJIO      MOCLDY    75  55  50 N14       30.16                   
GUADALAJARA    PTSUNNY   73  63  68 CALM      30.05                   
MANZANILLO     PTSUNNY  N/A N/A N/A SE12      29.74F                  
MAZATLAN       PTSUNNY   84  77  79 W12       29.73R HX  94           
P. VALLARTA    PTSUNNY   88  75  66 S6        29.74F HX  97           
URUAPAN        MOCLDY    68  66  94 S7        30.10R FOG              
ZACATECAS      MOCLDY    66  54  63 E6        30.22S                  

CENTRAL MEXICO
  
CITY           SKY/WX    TMP DP  RH WIND       PRES   REMARKS
CUERNAVACA     CLOUDY    75  64  69 CALM      30.00S                  
MEXICO CITY    MOCLDY    64  55  72 SW7       30.24                   
MORELIA        MOCLDY    75  57  53 N10       30.10                   
POZA RICA      CLOUDY    75  75 100 NW9       29.94R                  
PUEBLA         MOCLDY    66  57  72 CALM      30.27S                  
QUERETARO      MOCLDY    66  57  72 NE17      30.22F                  
S. LUIS POTOSI MOCLDY    68  66  94 NE8       30.20S                  
TAMPICO        MOCLDY    81  73  78 N15       29.92F                  
TOLUCA         CLOUDY    59  48  67 SE10      30.30S THUNDER          

SOUTHERN MEXICO
  
CITY           SKY/WX    TMP DP  RH WIND       PRES   REMARKS
ACAPULCO       MOCLDY    84  77  79 CALM      29.81R HX  94           
B. DE HUATULCO CLOUDY    75  72  88 CALM      29.87                   
OAXACA         MOCLDY    66  57  72 SE6       30.13R                  
P. ESCONDIDO   CLOUDY    75  72  88 NE12      29.97R                  
VERACRUZ       MOCLDY    82  73  74 N8        29.88R                  
ZIHUATANEJO    MOCLDY    81  75  83 NE9       29.81R                  

YUCATAN PENINSULA
  
CITY           SKY/WX    TMP DP  RH WIND       PRES   REMARKS
CAMPECHE       MOCLDY    77  73  88 NE12G23   29.87R                  
CANCUN         CLOUDY    77  77 100 NW2       29.89F                  
CHETUMAL       MOCLDY    82  75  78 NE6       29.85R                  
CD. DEL CARMEN PTCLDY    84  75  74 N16       29.84  HX  92           
COZUMEL        CLOUDY    77  73  88 NE6       29.88F                  
MERIDA         MOCLDY    73  73 100 CALM      29.90F                  
MINATITLAN       N/A    N/A N/A N/A MISG        N/A                   
TAPACHULA      LGT RAIN  75  73  94 CALM      29.85R                  
TUX. GUTIERREZ MOCLDY    79  70  73 NW8       29.86R                  
VILLAHERMOSA   PTCLDY    82  73  74 CALM      29.85R                  

CENTRAL AMERICA
  
CITY           SKY/WX    TMP DP  RH WIND       PRES   REMARKS
BELIZE CITY    PTCLDY    82  77  83 NE5       29.85R HX  91           

CARIBBEAN
  
CITY           SKY/WX    TMP DP  RH WIND       PRES   REMARKS
ARUBA          PTCLDY    84  77  79 E13       29.86R HX  94           
KINGSTON       PTCLDY    84  77  79 N5        29.86S HX  94           
NASSAU         MOCLDY    84  77  79 E7        29.98R HX  94           
SAN JUAN       PTCLDY    82  79  89 E6        29.95R HX  93           
SANTO DOMINGO  PTCLDY    81  77  89 SE6       29.92R                  
ST. CROIX      PTCLDY    81  73  78 E10G16    29.96                   
ST. KITTS      PTCLDY    81  75  83 E12       29.94S                  
ST. MAARTEN    PTCLDY    84  75  74 E8        29.97R HX  92           
ST. THOMAS     CLEAR     81  75  83 E8        29.96                   

$$


Return to Home page


Western Regional Climate Center, wrcc@dri.edu